TimeEDT,TemperatureF,Dew PointF,Humidity,Sea Level PressureIn,VisibilityMPH,Wind Direction,Wind SpeedMPH,Gust SpeedMPH,PrecipitationIn,Events,Conditions,WindDirDegrees,DateUTC
12:15 AM,39.4,38.7,97,30.33,7.0,Calm,Calm,-,N/A,,Clear,0,2013-09-18 04:15:00
12:35 AM,39.6,39.0,98,30.33,10.0,Calm,Calm,-,N/A,,Clear,0,2013-09-18 04:35:00
12:55 AM,39.2,38.5,97,30.32,10.0,Calm,Calm,-,N/A,,Clear,0,2013-09-18 04:55:00
1:15 AM,38.3,37.8,98,30.32,10.0,Calm,Calm,-,N/A,,Clear,0,2013-09-18 05:15:00
1:35 AM,37.6,37.2,99,30.32,7.0,Calm,Calm,-,N/A,,Clear,0,2013-09-18 05:35:00
1:55 AM,37.2,36.9,99,30.32,10.0,SSE,3.5,-,N/A,,Clear,150,2013-09-18 05:55:00
2:15 AM,37.4,37.2,99,30.31,10.0,Calm,Calm,-,N/A,,Clear,0,2013-09-18 06:15:00
2:35 AM,36.7,36.5,99,30.32,10.0,Calm,Calm,-,N/A,,Clear,0,2013-09-18 06:35:00
2:55 AM,36.1,35.8,99,30.31,10.0,Calm,Calm,-,N/A,,Scattered Clouds,0,2013-09-18 06:55:00
3:15 AM,36.3,36.0,99,30.31,10.0,Calm,Calm,-,N/A,,Clear,0,2013-09-18 07:15:00
3:35 AM,36.5,36.3,99,30.31,4.0,Calm,Calm,-,N/A,,Mostly Cloudy,0,2013-09-18 07:35:00
3:55 AM,36.9,36.7,99,30.31,0.5,Calm,Calm,-,N/A,Fog,Fog,0,2013-09-18 07:55:00
4:15 AM,36.5,36.5,100,30.30,0.2,Calm,Calm,-,N/A,Fog,Fog,0,2013-09-18 08:15:00
4:35 AM,36.0,35.8,99,30.30,0.5,Calm,Calm,-,N/A,Fog,Fog,0,2013-09-18 08:35:00
4:55 AM,36.3,36.0,99,30.31,3.0,Calm,Calm,-,N/A,,Overcast,0,2013-09-18 08:55:00
5:15 AM,36.7,36.5,99,30.31,1.2,Calm,Calm,-,N/A,,Overcast,0,2013-09-18 09:15:00
5:35 AM,37.4,37.2,99,30.31,0.5,Calm,Calm,-,N/A,Fog,Fog,0,2013-09-18 09:35:00
5:55 AM,37.6,37.4,99,30.31,0.5,Calm,Calm,-,N/A,Fog,Fog,0,2013-09-18 09:55:00
6:15 AM,38.5,38.3,99,30.31,0.5,Calm,Calm,-,N/A,Fog,Fog,0,2013-09-18 10:15:00
6:35 AM,38.5,38.3,99,30.31,0.2,Calm,Calm,-,N/A,Fog,Fog,0,2013-09-18 10:35:00
6:55 AM,38.7,38.5,99,30.32,0.2,Calm,Calm,-,N/A,Fog,Fog,0,2013-09-18 10:55:00
7:15 AM,38.3,38.1,99,30.32,0.2,Calm,Calm,-,N/A,Fog,Fog,0,2013-09-18 11:15:00
7:35 AM,38.7,38.5,99,30.31,0.5,Calm,Calm,-,N/A,Fog,Fog,0,2013-09-18 11:35:00
7:55 AM,39.6,39.4,99,30.31,2.0,Calm,Calm,-,N/A,,Overcast,0,2013-09-18 11:55:00
8:15 AM,40.5,40.3,99,30.31,1.5,Calm,Calm,-,N/A,,Overcast,0,2013-09-18 12:15:00
8:35 AM,41.0,40.5,98,30.30,0.8,Calm,Calm,-,N/A,,Overcast,0,2013-09-18 12:35:00
8:55 AM,42.4,42.1,99,30.30,4.0,Calm,Calm,-,N/A,,Overcast,0,2013-09-18 12:55:00
9:15 AM,43.9,43.3,98,30.29,10.0,Calm,Calm,-,N/A,,Mostly Cloudy,0,2013-09-18 13:15:00
9:35 AM,46.0,45.5,98,30.29,10.0,Calm,Calm,-,N/A,,Clear,0,2013-09-18 13:35:00
9:55 AM,48.4,47.5,97,30.29,10.0,Calm,Calm,-,N/A,,Clear,0,2013-09-18 13:55:00
10:15 AM,52.3,47.3,83,30.28,10.0,Calm,Calm,-,N/A,,Clear,0,2013-09-18 14:15:00
10:35 AM,56.1,46.2,69,30.27,10.0,Calm,Calm,-,N/A,,Clear,0,2013-09-18 14:35:00
10:55 AM,60.6,46.8,60,30.26,10.0,Calm,Calm,-,N/A,,Clear,0,2013-09-18 14:55:00
11:15 AM,64.2,41.4,43,30.25,10.0,West,11.5,-,N/A,,Clear,270,2013-09-18 15:15:00
11:35 AM,64.8,40.5,41,30.24,10.0,West,8.1,-,N/A,,Clear,260,2013-09-18 15:35:00
11:55 AM,65.8,41.0,40,30.24,10.0,West,9.2,-,N/A,,Clear,270,2013-09-18 15:55:00
12:15 PM,66.6,42.6,42,30.23,10.0,West,9.2,-,N/A,,Clear,280,2013-09-18 16:15:00
12:35 PM,66.9,43.5,43,30.22,10.0,West,6.9,-,N/A,,Clear,280,2013-09-18 16:35:00
12:55 PM,68.0,41.9,39,30.21,10.0,WNW,6.9,-,N/A,,Clear,300,2013-09-18 16:55:00
1:15 PM,68.4,41.5,38,30.21,10.0,WNW,8.1,-,N/A,,Clear,300,2013-09-18 17:15:00
1:35 PM,69.1,41.4,37,30.20,10.0,NW,5.8,-,N/A,,Clear,310,2013-09-18 17:35:00
1:55 PM,69.1,41.0,36,30.19,10.0,NW,3.5,-,N/A,,Clear,310,2013-09-18 17:55:00
2:15 PM,69.6,38.8,33,30.18,10.0,WNW,3.5,-,N/A,,Clear,290,2013-09-18 18:15:00
2:35 PM,70.3,40.5,34,30.17,10.0,WNW,4.6,-,N/A,,Clear,300,2013-09-18 18:35:00
2:55 PM,70.3,38.3,31,30.17,10.0,WNW,4.6,-,N/A,,Clear,300,2013-09-18 18:55:00
3:15 PM,71.1,39.0,31,30.16,10.0,WNW,3.5,-,N/A,,Clear,300,2013-09-18 19:15:00
3:35 PM,71.4,36.9,28,30.15,10.0,WNW,4.6,-,N/A,,Clear,290,2013-09-18 19:35:00
3:55 PM,71.8,37.8,29,30.14,10.0,WNW,5.8,-,N/A,,Clear,300,2013-09-18 19:55:00
4:15 PM,71.8,36.7,28,30.14,10.0,WNW,6.9,-,N/A,,Clear,300,2013-09-18 20:15:00
4:35 PM,71.6,36.1,27,30.13,10.0,West,4.6,-,N/A,,Clear,280,2013-09-18 20:35:00
4:55 PM,71.4,37.8,29,30.12,10.0,WNW,5.8,-,N/A,,Clear,290,2013-09-18 20:55:00
5:15 PM,71.1,41.5,34,30.12,10.0,West,4.6,-,N/A,,Clear,280,2013-09-18 21:15:00
5:35 PM,70.5,45.7,41,30.12,10.0,Calm,Calm,-,N/A,,Clear,0,2013-09-18 21:35:00
5:55 PM,68.4,48.7,49,30.12,10.0,Calm,Calm,-,N/A,,Clear,0,2013-09-18 21:55:00
6:15 PM,64.6,51.8,63,30.12,10.0,Calm,Calm,-,N/A,,Clear,0,2013-09-18 22:15:00
6:35 PM,61.0,50.5,68,30.12,10.0,Calm,Calm,-,N/A,,Clear,0,2013-09-18 22:35:00
6:55 PM,57.0,50.9,80,30.13,10.0,Calm,Calm,-,N/A,,Clear,0,2013-09-18 22:55:00
7:15 PM,55.0,51.3,87,30.13,10.0,Calm,Calm,-,N/A,,Clear,0,2013-09-18 23:15:00
7:35 PM,53.1,50.5,91,30.13,10.0,Calm,Calm,-,N/A,,Clear,0,2013-09-18 23:35:00
7:55 PM,52.0,49.8,92,30.14,10.0,Calm,Calm,-,N/A,,Clear,0,2013-09-18 23:55:00
8:15 PM,50.5,48.7,94,30.14,10.0,Calm,Calm,-,N/A,,Clear,0,2013-09-19 00:15:00
8:35 PM,50.2,48.6,94,30.14,10.0,Calm,Calm,-,N/A,,Clear,0,2013-09-19 00:35:00
8:55 PM,49.5,48.2,95,30.15,10.0,Calm,Calm,-,N/A,,Clear,0,2013-09-19 00:55:00
9:15 PM,48.4,47.3,96,30.14,10.0,Calm,Calm,-,N/A,,Clear,0,2013-09-19 01:15:00
9:35 PM,47.5,46.4,96,30.14,3.0,Calm,Calm,-,N/A,,Clear,0,2013-09-19 01:35:00
9:55 PM,46.8,45.7,96,30.15,10.0,Calm,Calm,-,N/A,,Clear,0,2013-09-19 01:55:00
10:15 PM,46.2,45.3,97,30.15,1.0,Calm,Calm,-,N/A,,Mist,0,2013-09-19 02:15:00
10:35 PM,45.7,44.8,97,30.15,1.8,Calm,Calm,-,N/A,,Mist,0,2013-09-19 02:35:00
10:55 PM,45.1,44.4,97,30.15,10.0,Calm,Calm,-,N/A,,Clear,0,2013-09-19 02:55:00
11:15 PM,44.2,43.5,97,30.14,2.5,Calm,Calm,-,N/A,,Clear,0,2013-09-19 03:15:00
11:35 PM,43.9,43.2,97,30.14,1.8,Calm,Calm,-,N/A,,Mist,0,2013-09-19 03:35:00
11:55 PM,43.5,43.0,98,30.14,5.0,Calm,Calm,-,N/A,,Clear,0,2013-09-19 03:55:00